Location: ??????????
(54.7560°N, 39.1389°E)
Time: 18:08:26
(UTC+00:00)

SL-16 R/B - Pass Details

Date: 19 May 2025
Orbit: 841 x 844 km, 71.0° (Epoch: 21 June)

Event Time Altitude Azimuth Distance (km) Brightness Sun altitude
Rises 19:14:08 0° 326° (NW) 3,415 7.6 -10.6°
Reaches altitude 10° 19:16:42 10° 332° (NNW) 2,477 6.3 -10.8°
Maximum altitude 19:22:11 47° 46° (NE) 1,114 3.0 -11.2°
Drops below altitude 10° 19:27:38 10° 120° (ESE) 2,466 4.1 -11.5°
Enters shadow 19:27:41 10° 120° (ESE) 2,481 4.1 -11.5°
